TimeAKST,TemperatureF,Dew PointF,Humidity,Sea Level PressureIn,VisibilityMPH,Wind Direction,Wind SpeedMPH,Gust SpeedMPH,PrecipitationIn,Events,Conditions,WindDirDegrees,DateUTC
12:37 AM,-4.0,-7.6,85,29.51,10.0,Calm,Calm,-,N/A,,Mostly Cloudy,0,2012-12-09 09:37:00
12:55 AM,-2.9,-8.0,79,29.50,10.0,Calm,Calm,-,N/A,,Overcast,0,2012-12-09 09:55:00
1:08 AM,-2.2,-7.6,78,29.49,10.0,Calm,Calm,-,N/A,,Overcast,0,2012-12-09 10:08:00
1:32 AM,-2.2,-7.6,78,29.48,10.0,Calm,Calm,-,N/A,,Overcast,0,2012-12-09 10:32:00
1:55 AM,-1.3,-6.3,79,29.47,10.0,Calm,Calm,-,N/A,,Overcast,0,2012-12-09 10:55:00
2:39 AM,-0.4,-5.8,78,29.47,10.0,Calm,Calm,-,N/A,,Overcast,0,2012-12-09 11:39:00
2:40 AM,-0.4,-5.8,78,29.47,10.0,Calm,Calm,-,N/A,,Overcast,0,2012-12-09 11:40:00
2:55 AM,0.1,-4.4,81,29.47,7.0,Calm,Calm,-,0.00,Snow,Light Snow,0,2012-12-09 11:55:00
3:05 AM,1.4,-4.0,78,29.46,4.0,Calm,Calm,-,N/A,Snow,Light Snow,0,2012-12-09 12:05:00
3:06 AM,1.4,-4.0,78,29.46,4.0,Calm,Calm,-,N/A,Snow,Light Snow,0,2012-12-09 12:06:00
3:48 AM,1.4,-2.2,85,29.45,2.5,Calm,Calm,-,N/A,Snow,Light Snow,0,2012-12-09 12:48:00
3:50 AM,1.4,-2.2,85,29.45,2.5,Calm,Calm,-,N/A,Snow,Light Snow,0,2012-12-09 12:50:00
3:55 AM,1.8,-2.6,82,29.45,2.5,Calm,Calm,-,0.00,Snow,Light Snow,0,2012-12-09 12:55:00
3:57 AM,1.4,-2.2,85,29.45,3.0,Calm,Calm,-,N/A,Snow,Light Snow,0,2012-12-09 12:57:00
3:58 AM,1.4,-2.2,85,29.44,3.0,Calm,Calm,-,N/A,Snow,Light Snow,0,2012-12-09 12:58:00
4:55 AM,2.7,-1.7,82,29.44,3.0,Calm,Calm,-,0.00,Snow,Light Snow,0,2012-12-09 13:55:00
5:05 AM,3.2,-2.2,78,29.44,4.0,Calm,Calm,-,N/A,Snow,Light Snow,0,2012-12-09 14:05:00
5:12 AM,3.2,-2.2,78,29.45,5.0,Calm,Calm,-,N/A,Snow,Light Snow,0,2012-12-09 14:12:00
5:15 AM,3.2,-0.4,85,29.45,6.0,Calm,Calm,-,N/A,Snow,Light Snow,0,2012-12-09 14:15:00
5:21 AM,3.2,-0.4,85,29.45,7.0,Calm,Calm,-,N/A,Snow,Light Snow,0,2012-12-09 14:21:00
5:54 AM,3.2,-0.4,85,29.45,4.0,Calm,Calm,-,N/A,Snow,Light Snow,0,2012-12-09 14:54:00
5:55 AM,4.1,-0.0,83,29.45,4.0,Calm,Calm,-,0.01,Snow,Light Snow,0,2012-12-09 14:55:00
5:56 AM,3.2,-0.4,85,29.46,4.0,Calm,Calm,-,N/A,Snow,Light Snow,0,2012-12-09 14:56:00
6:00 AM,5.0,-0.4,78,29.46,3.0,Calm,Calm,-,N/A,Snow,Light Snow,0,2012-12-09 15:00:00
6:04 AM,3.2,-0.4,85,29.46,2.5,Calm,Calm,-,N/A,Snow,Light Snow,0,2012-12-09 15:04:00
6:07 AM,5.0,-0.4,78,29.46,2.5,Calm,Calm,-,N/A,Snow,Light Snow,0,2012-12-09 15:07:00
6:15 AM,3.2,-0.4,85,29.46,2.0,Calm,Calm,-,N/A,Snow,Light Snow,0,2012-12-09 15:15:00
6:19 AM,5.0,-0.4,78,29.46,2.5,Calm,Calm,-,N/A,Snow,Light Snow,0,2012-12-09 15:19:00
6:22 AM,5.0,-0.4,78,29.46,2.5,Calm,Calm,-,N/A,Snow,Light Snow,0,2012-12-09 15:22:00
6:23 AM,5.0,-0.4,78,29.46,2.5,Calm,Calm,-,N/A,Snow,Light Snow,0,2012-12-09 15:23:00
6:26 AM,5.0,-0.4,78,29.46,3.0,Calm,Calm,-,N/A,Snow,Light Snow,0,2012-12-09 15:26:00
6:27 AM,5.0,-0.4,78,29.46,3.0,Calm,Calm,-,N/A,Snow,Light Snow,0,2012-12-09 15:27:00
6:29 AM,5.0,-0.4,78,29.46,3.0,Calm,Calm,-,N/A,Snow,Light Snow,0,2012-12-09 15:29:00
6:30 AM,5.0,-0.4,78,29.46,3.0,Calm,Calm,-,N/A,Snow,Light Snow,0,2012-12-09 15:30:00
6:31 AM,5.0,-0.4,78,29.46,3.0,Calm,Calm,-,N/A,Snow,Light Snow,0,2012-12-09 15:31:00
6:35 AM,5.0,-0.4,78,29.46,3.0,Calm,Calm,-,N/A,Snow,Light Snow,0,2012-12-09 15:35:00
6:38 AM,5.0,1.4,85,29.46,4.0,Calm,Calm,-,N/A,Snow,Light Snow,0,2012-12-09 15:38:00
6:44 AM,5.0,1.4,85,29.46,5.0,Calm,Calm,-,N/A,Snow,Light Snow,0,2012-12-09 15:44:00
6:49 AM,5.0,1.4,85,29.46,5.0,Calm,Calm,-,N/A,Snow,Light Snow,0,2012-12-09 15:49:00
6:55 AM,4.6,0.7,84,29.46,5.0,Calm,Calm,-,0.01,Snow,Light Snow,0,2012-12-09 15:55:00
7:09 AM,5.0,1.4,85,29.47,10.0,Calm,Calm,-,N/A,Snow,Light Snow,0,2012-12-09 16:09:00
7:12 AM,5.0,1.4,85,29.47,7.0,Calm,Calm,-,N/A,Snow,Light Snow,0,2012-12-09 16:12:00
7:31 AM,5.0,1.4,85,29.47,9.0,Calm,Calm,-,N/A,,Overcast,0,2012-12-09 16:31:00
7:55 AM,5.5,1.8,84,29.47,6.0,Calm,Calm,-,0.00,Snow,Light Snow,0,2012-12-09 16:55:00
8:30 AM,6.8,3.2,85,29.48,10.0,Calm,Calm,-,N/A,Snow,Light Snow,0,2012-12-09 17:30:00
8:55 AM,6.6,2.8,84,29.48,6.0,Calm,Calm,-,0.00,Snow,Light Snow,0,2012-12-09 17:55:00
9:04 AM,6.8,3.2,85,29.49,9.0,Calm,Calm,-,N/A,Snow,Light Snow,0,2012-12-09 18:04:00
9:08 AM,6.8,3.2,85,29.49,2.5,Calm,Calm,-,N/A,Snow,Light Snow,0,2012-12-09 18:08:00
9:34 AM,6.8,3.2,85,29.49,8.0,Calm,Calm,-,N/A,Snow,Light Snow,0,2012-12-09 18:34:00
9:55 AM,5.9,1.9,84,29.49,5.0,Calm,Calm,-,0.00,Snow,Light Snow,0,2012-12-09 18:55:00
10:22 AM,6.8,3.2,85,29.49,8.0,Calm,Calm,-,N/A,Snow,Light Snow,0,2012-12-09 19:22:00
10:39 AM,5.0,1.4,85,29.50,6.0,Calm,Calm,-,N/A,Snow,Light Snow,0,2012-12-09 19:39:00
10:46 AM,5.0,1.4,85,29.50,4.0,Calm,Calm,-,N/A,Snow,Light Snow,0,2012-12-09 19:46:00
10:55 AM,5.2,1.0,83,29.50,7.0,Calm,Calm,-,0.00,,Overcast,0,2012-12-09 19:55:00
11:55 AM,-1.1,-5.8,81,29.51,10.0,Calm,Calm,-,N/A,,Mostly Cloudy,0,2012-12-09 20:55:00
12:55 PM,-0.9,-5.1,83,29.52,10.0,Calm,Calm,-,N/A,,Overcast,0,2012-12-09 21:55:00
1:55 PM,1.9,-2.2,83,29.53,7.0,Calm,Calm,-,N/A,,Mostly Cloudy,0,2012-12-09 22:55:00
2:55 PM,3.4,-0.8,83,29.54,10.0,Calm,Calm,-,N/A,,Mostly Cloudy,0,2012-12-09 23:55:00
3:55 PM,3.9,-0.0,84,29.55,10.0,Calm,Calm,-,N/A,,Mostly Cloudy,0,2012-12-10 00:55:00
4:16 PM,5.0,-0.4,78,29.55,7.0,Calm,Calm,-,N/A,Snow,Light Snow,0,2012-12-10 01:16:00
4:41 PM,5.0,1.4,85,29.56,7.0,Calm,Calm,-,N/A,Snow,Light Snow,0,2012-12-10 01:41:00
4:46 PM,5.0,1.4,85,29.56,8.0,Calm,Calm,-,N/A,Snow,Light Snow,0,2012-12-10 01:46:00
4:55 PM,5.4,1.6,84,29.56,6.0,Calm,Calm,-,0.00,Snow,Light Snow,0,2012-12-10 01:55:00
5:55 PM,5.0,1.2,84,29.56,10.0,Calm,Calm,-,0.00,,Mostly Cloudy,0,2012-12-10 02:55:00
6:55 PM,3.0,-0.8,84,29.57,10.0,Calm,Calm,-,N/A,,Mostly Cloudy,0,2012-12-10 03:55:00
7:55 PM,3.2,-0.8,84,29.57,10.0,Calm,Calm,-,N/A,,Overcast,0,2012-12-10 04:55:00
8:55 PM,3.0,-1.1,83,29.58,10.0,Calm,Calm,-,N/A,,Overcast,0,2012-12-10 05:55:00
9:55 PM,5.4,1.4,84,29.58,10.0,Calm,Calm,-,N/A,,Overcast,0,2012-12-10 06:55:00
10:55 PM,6.1,1.9,83,29.60,10.0,Calm,Calm,-,0.00,Snow,Light Snow,0,2012-12-10 07:55:00
11:41 PM,5.0,1.4,85,29.61,7.0,Calm,Calm,-,N/A,Snow,Light Snow,0,2012-12-10 08:41:00
11:43 PM,5.0,1.4,85,29.61,6.0,Calm,Calm,-,N/A,Snow,Light Snow,0,2012-12-10 08:43:00
11:47 PM,5.0,1.4,85,29.61,6.0,Calm,Calm,-,N/A,Snow,Light Snow,0,2012-12-10 08:47:00
11:50 PM,5.0,1.4,85,29.61,7.0,Calm,Calm,-,N/A,Snow,Light Snow,0,2012-12-10 08:50:00
11:54 PM,5.0,1.4,85,29.61,8.0,Calm,Calm,-,N/A,Snow,Light Snow,0,2012-12-10 08:54:00
11:55 PM,5.9,1.9,84,29.62,9.0,Calm,Calm,-,0.00,Snow,Light Snow,0,2012-12-10 08:55:00